This demonstration page uses our WeatherBlox Daily Observations layout. Learn more.

41.55636, -103.73856

Hourly Observations for August 14, 2015

Temp ( °F °C ) Dew Point ( °F °C ) Humidity (%) Winds ( mph kmh ) Pressure ( in mb ) Visibility ( mi km ) Precip ( " mm )
12:53 am 00:53 Clear 68 20 60 15.6 76 76 ESE 5 7 30.04 1017 10 16.0934 0 0
1:53 am 01:53 Clear 66 18.9 61 16.1 84 84 ENE 6 9 30.03 1017 10 16.0934 0 0
2:53 am 02:53 Clear 66 18.9 61 16.1 84 84 Calm 30.03 1017 10 16.0934 0 0
3:53 am 03:53 Clear 61 16.1 59 15 93 93 NW 6 9 30.04 1017 10 16.0934 0 0
4:53 am 04:53 Clear 62 16.7 59 15 90 90 N 3 6 30.04 1017 10 16.0934 0 0
5:53 am 05:53 Clear 60 15.6 58 14.4 93 93 NNW 3 6 30.06 1018 10 16.0934 0 0
6:53 am 06:53 Sunny 62 16.7 59 15 90 90 WNW 5 7 30.08 1019 8 12.87472 0 0
7:53 am 07:53 Sunny 69 20.6 61 16.1 76 76 Calm 30.09 1019 10 16.0934 0 0
8:53 am 08:53 Sunny 75 23.9 62 16.7 64 64 W 3 6 30.09 1019 10 16.0934 0 0
9:53 am 09:53 Sunny 80 26.7 62 16.7 54 54 VRB 3 6 30.08 1019 10 16.0934 0 0
10:53 am 10:53 Sunny 86 30 61 16.1 43 43 ESE 5 7 30.06 1018 10 16.0934 0 0
11:53 am 11:53 Sunny 88 31.1 57 13.9 35 35 SE 9 15 30.05 1018 10 16.0934 0 0
12:53 pm 12:53 Sunny 91 32.8 58 14.4 33 33 E 12 19 30.02 1017 10 16.0934 0 0
1:53 pm 13:53 Sunny 93 33.9 58 14.4 31 31 E 14 22 30.01 1016 10 16.0934 0 0
2:53 pm 14:53 Sunny 93 33.9 57 13.9 30 30 E 14 22 29.99 1016 10 16.0934 0 0
3:53 pm 15:53 Sunny 94 34.4 55 12.8 27 27 E 13 20 29.98 1015 10 16.0934 0 0
4:53 pm 16:53 Sunny 92 33.3 57 13.9 31 31 E 13 20 29.96 1015 10 16.0934 0 0
5:53 pm 17:53 Sunny 90 32.2 59 15 35 35 E 12 19 29.96 1015 10 16.0934 0 0
6:53 pm 18:53 Sunny 84 28.9 61 16.1 46 46 ESE 8 13 29.97 1015 10 16.0934 0 0
7:53 pm 19:53 Sunny 80 26.7 61 16.1 52 52 ESE 10 17 29.96 1015 10 16.0934 0 0
8:53 pm 20:53 Clear 77 25 62 16.7 60 60 ESE 13 20 29.96 1015 10 16.0934 0 0
9:53 pm 21:53 Clear 75 23.9 61 16.1 62 62 ESE 10 17 29.98 1015 10 16.0934 0 0
10:53 pm 22:53 Clear 74 23.3 61 16.1 64 64 ESE 10 17 29.97 1015 10 16.0934 0 0
11:53 pm 23:53 Clear 71 21.7 62 16.7 73 73 E 10 17 29.95 1014 10 16.0934 0 0

Powered by AerisWeather